Nashville, TN (JWN)

Redbird FMX


Given the close proximity to downtown Nashville, Tennessee, John Tune (JWN) is a great place for the general aviation enthusiast or for someone learning how to fly. Wings of Eagles Aviation’s office is located in Hangar 1, and is accessible from the road or the ramp. The FBO is open 24 hours a day 7 days a week so there will always be someone available for help or fuel.

Address:
210 Tune Airport Dr.
Nashville, TN 37209

Phone: (615) 979-9222

Business Hours:
Monday-Sunday 7a-10p


NOAA Weather

Nashville, Nashville International Airport, TN

Last Updated on Sep 4 2015, 4:53 pm CDT

Current Conditions: Partly Cloudy

NOAA Icon

Temp: 93°F

Wind: SE at 3mph

Humidity: 34%

Heat Index: 93°F

Your 5-Day Forecast at a Glance

Available data for KBNA from the past hour

METAR
KBNA 042153Z 12003KT 10SM FEW070 SCT250 34/16 A3000 RMK AO2 SLP149 T03390161
TAF
KBNA 041720Z 0418/0518 VRB05KT P6SM FEW060 SCT070